Wind_Speed
9 8 5 2 6 8 5 6 7 5 5 3 3 5 3 15 24 27 30 34 41 45 46 47 48 43 44 42 40 38 35 32 29 25 21 21 22 21 20 20 21 20 19 18
3 10 3 6 8 8 8 6 6 9 5 14 7 7 11 15 24 28 33 38 44 46 46 50 51 48 47 45 43 39 37 33 31 27 23 22 23 22 21 21 22 21 21 19
3 8 4 7 12 7 10 12 4 5 5 12 8 10 1 16 25 28 35 40 41 46 51 51 52 50 49 48 44 41 38 35 33 29 25 24 24 23 23 24 23 24 23 21
3 4 4 4 13 15 18 14 15 9 12 12 17 24 17 14 18 30 34 38 44 48 50 50 48 49 50 48 45 43 40 36 35 32 28 25 26 25 24 25 25 26 24 22
2 2 7 6 10 7 8 8 15 14 16 20 35 7 7 21 21 7 20 39 40 43 47 48 49 49 49 48 46 44 41 38 37 35 31 28 28 27 26 26 27 26 24 23
3 1 3 4 12 14 10 3 16 18 16 16 26 4 4 32 26 18 10 31 38 39 41 44 46 48 49 50 47 46 43 38 36 35 33 30 28 27 26 27 26 26 25 23
1 2 4 11 20 16 1 4 19 19 18 21 9 8 31 33 30 23 16 26 34 36 40 43 45 47 48 49 49 46 42 37 34 35 33 30 27 26 26 27 27 28 27 25
2 4 3 21 6 4 7 11 14 16 17 20 24 32 30 31 30 25 18 23 35 38 41 42 43 44 47 48 47 45 41 36 34 34 34 33 28 26 27 28 29 29 29 27
4 1 4 11 6 11 14 12 13 15 20 23 26 31 32 33 30 24 17 17 33 37 39 41 40 41 44 44 45 42 39 37 35 34 35 33 31 29 29 30 31 32 32 31
2 1 3 5 13 16 13 14 16 16 19 24 27 29 30 29 29 26 15 15 30 36 39 40 41 38 40 41 41 39 38 37 35 35 35 32 31 29 29 32 34 35 35 33
2 3 2 3 15 23 18 17 17 15 20 23 23 26 26 27 26 25 16 14 29 38 37 40 40 38 38 38 37 38 37 36 34 34 33 31 31 30 31 31 33 35 35 33
3 6 1 3 11 19 18 21 20 19 20 21 22 25 24 23 21 21 12 14 29 34 38 40 38 36 36 35 34 35 35 36 34 32 32 31 30 30 29 27 26 28 29 27
4 9 7 8 9 18 19 17 15 16 18 20 20 21 21 18 16 13 5 11 22 29 34 36 35 32 30 32 32 32 33 32 32 31 31 30 30 30 30 28 25 24 24 24
15 9 7 11 12 20 19 15 16 14 14 18 19 18 20 17 13 12 10 1 12 20 25 27 29 29 30 25 30 30 30 29 29 28 29 29 28 28 28 27 24 25 26 25
14 12 4 4 13 19 18 16 21 22 19 22 24 23 24 25 22 18 11 10 7 16 18 18 20 21 25 28 28 27 30 30 28 28 27 26 26 25 26 25 23 21 22 25
19 13 6 9 13 16 18 21 26 27 26 25 28 30 27 25 26 31 26 14 11 9 9 15 16 21 26 26 26 26 28 28 26 25 25 25 27 26 25 25 25 24 23 22
9 16 11 12 12 15 16 18 24 27 26 31 29 29 27 27 29 31 30 29 27 27 21 10 11 12 19 19 20 24 27 25 26 27 25 24 24 25 24 24 24 25 24 23
20 17 16 16 15 16 20 24 26 26 28 30 28 28 31 32 30 31 25 29 28 27 28 27 14 8 7 16 20 20 23 25 25 24 26 25 24 24 24 23 24 24 23 24
13 13 14 15 14 16 18 14 18 21 22 19 20 27 29 29 27 26 27 33 31 30 29 23 20 15 14 6 15 19 20 22 27 27 24 24 25 26 26 25 25 24 23 24
10 10 10 8 8 9 9 13 17 16 16 18 18 19 20 21 27 23 24 30 30 30 24 21 21 21 17 16 14 10 8 12 16 19 23 26 27 28 27 27 27 26 25 24
7 9 9 12 13 12 10 9 8 10 13 14 15 15 18 17 19 22 22 23 25 24 23 19 17 19 19 19 13 9 8 6 4 6 10 14 17 21 24 27 29 29 28 27
7 9 8 9 11 8 9 9 7 7 9 8 11 12 15 17 16 16 18 18 19 20 19 17 17 15 13 15 15 14 9 3 2 2 4 6 7 8 10 14 18 22 26 28
11 11 12 10 11 9 7 11 9 7 8 12 15 19 20 20 21 22 24 22 22 23 24 24 21 15 13 13 11 9 7 7 5 2 3 5 6 9 11 13 15 17 19 22
12 11 11 11 12 10 9 5 7 11 14 18 22 25 28 30 27 23 22 22 23 24 23 23 23 22 17 16 15 13 10 7 7 8 7 6 6 11 16 19 20 21 22 23
13 12 13 12 11 12 12 11 13 15 19 23 25 25 25 24 25 26 24 23 23 22 22 22 22 21 20 19 18 17 17 16 16 16 15 14 14 14 14 15 16 18 22 27
9 7 8 10 12 13 13 15 19 22 24 24 23 21 20 21 21 22 22 20 20 22 22 21 22 23 23 22 21 20 20 19 19 21 21 22 22 21 21 22 21 20 20 19
12 13 15 14 13 14 15 17 20 23 23 22 21 18 19 20 20 20 21 22 22 20 20 21 21 21 21 21 21 20 20 19 19 21 21 23 24 26 26 27 27 26 25 24
Wind_Direction
281 277 265 142 159 164 136 159 153 206 202 207 142 87 175 194 185 175 178 179 189 197 204 209 210 208 213 212 211 207 206 206 206 206 204 203 199 197 197 200 201 201 198 195
285 348 326 80 43 119 57 31 116 152 220 356 312 122 107 161 163 170 178 186 198 201 201 210 212 209 214 213 211 207 208 208 206 205 204 204 202 199 200 203 202 201 202 201
311 341 319 32 346 75 96 42 344 68 341 334 351 341 197 166 181 182 189 194 196 203 209 214 215 213 215 214 211 208 208 209 208 207 206 206 204 202 204 205 205 205 204 204
285 315 97 128 20 59 85 55 34 24 357 339 324 305 313 59 200 202 212 203 209 213 213 216 216 213 215 215 211 210 209 210 209 209 209 206 206 207 207 207 209 207 205 205
306 49 122 41 13 358 5 52 20 7 354 344 337 341 92 27 17 357 232 223 220 222 223 217 217 215 214 214 212 212 211 211 211 211 210 208 209 210 210 209 208 208 208 208
330 101 177 45 327 317 306 148 2 2 355 353 350 44 288 343 347 340 258 225 226 219 215 215 215 216 214 213 211 214 213 213 213 214 213 213 214 212 212 211 212 209 210 211
331 17 73 339 331 318 158 334 333 348 348 344 337 291 306 325 329 330 310 223 224 225 221 222 217 218 216 213 214 216 213 213 215 216 217 217 217 215 213 211 210 211 213 212
6 34 47 353 7 46 318 315 328 337 339 332 316 318 326 324 326 332 320 223 214 221 220 220 218 217 216 216 215 215 214 214 217 218 217 217 216 216 214 213 212 212 213 214
65 22 330 354 354 341 335 316 333 331 334 328 319 326 327 325 329 329 325 228 216 218 219 218 216 217 216 215 215 215 214 215 217 218 218 218 216 215 214 214 214 215 215 217
113 199 182 15 20 1 350 342 339 340 338 347 330 330 326 325 327 330 328 239 224 217 218 216 217 216 217 216 216 215 215 215 215 217 217 217 217 219 219 218 217 218 218 220
23 24 73 128 14 3 359 353 356 357 354 348 339 342 336 330 326 329 313 233 228 225 220 219 216 211 215 216 216 213 214 214 213 216 218 219 220 222 223 227 227 222 222 224
272 320 33 14 11 8 359 0 359 8 345 348 354 355 346 337 330 330 306 228 228 224 222 218 214 211 214 217 214 213 213 213 213 216 218 220 222 221 224 232 234 233 235 238
288 5 359 9 10 12 9 12 13 0 353 350 4 6 4 349 345 349 315 225 229 231 226 223 214 212 218 220 213 214 217 217 215 217 219 220 221 222 223 223 223 229 235 235
3 318 18 25 13 17 25 32 31 28 28 19 17 20 24 20 15 15 48 99 227 225 224 223 216 211 215 220 216 216 218 222 222 222 222 222 223 223 223 227 227 227 226 225
343 360 21 47 15 29 34 29 36 35 33 33 33 35 36 42 43 29 57 86 165 201 190 189 210 221 227 226 216 218 221 221 223 227 229 228 227 227 228 230 232 235 234 231
325 340 122 59 44 41 39 41 44 39 43 40 44 46 46 49 58 58 61 86 131 127 159 186 195 216 223 222 219 222 226 226 228 228 231 232 232 232 232 233 235 237 237 237
65 89 74 62 63 57 50 51 50 41 38 41 43 47 54 54 57 58 61 63 75 87 93 131 161 191 214 210 235 231 231 233 235 234 234 236 237 238 238 239 241 242 243 242
85 76 69 69 75 66 57 43 39 35 29 27 28 39 46 48 42 38 42 59 66 75 74 73 79 68 197 207 218 227 234 237 241 241 240 240 244 245 245 247 248 249 250 248
57 64 59 70 59 56 46 31 34 33 26 24 27 29 32 34 37 33 35 44 48 59 51 62 76 68 70 166 212 223 232 238 240 242 243 246 247 248 249 251 252 254 255 254
32 29 26 23 16 11 34 42 32 30 34 23 25 28 27 28 24 26 30 36 34 38 38 52 58 59 58 71 92 118 183 219 230 238 245 248 250 251 255 256 256 257 257 259
17 17 2 351 350 358 8 356 17 20 11 22 27 24 26 30 23 20 16 19 20 20 24 35 41 41 44 50 65 85 93 102 147 203 223 241 251 255 258 261 260 259 259 260
317 323 330 344 342 340 354 359 345 338 341 359 10 12 5 5 4 5 354 354 355 353 354 4 6 17 15 23 38 55 56 54 74 160 194 210 221 236 246 251 257 262 266 267
297 307 319 300 311 313 316 340 331 331 330 330 333 333 333 332 328 327 326 327 324 323 323 326 332 338 341 350 354 5 15 14 6 319 252 244 246 253 254 254 251 254 258 260
285 291 303 295 300 280 291 301 299 309 315 320 322 324 325 323 322 322 319 314 309 305 310 312 314 316 319 315 312 313 313 302 294 298 299 295 271 267 265 264 264 264 263 261
271 276 291 285 280 285 289 293 302 307 309 313 316 317 316 315 316 318 317 315 312 309 306 305 306 307 307 305 301 296 293 291 288 283 280 280 278 274 274 276 276 271 265 261
285 299 284 280 283 278 278 291 302 309 314 315 314 315 315 315 314 313 316 315 312 309 308 306 301 301 301 302 303 298 294 293 288 284 279 272 269 268 270 270 271 275 278 278
282 286 280 274 275 286 295 301 308 311 312 313 314 320 316 316 317 319 317 317 315 313 309 307 307 303 300 299 298 299 296 292 290 287 283 280 277 273 269 267 268 268 268 272
Height
1406 1398 1393 1390 1393 1395 1398 1405 1417 1416 1412 1403 1404 1404 1403 1405 1410 1417 1425 1430 1435 1440 1447 1454 1463 1472 1477 1484 1491 1498 1504 1508 1513 1519 1521 1526 1530 1534 1539 1544 1548 1553 1556 1558
1412 1396 1388 1392 1393 1395 1402 1409 1407 1409 1410 1416 1408 1403 1406 1409 1410 1415 1419 1425 1431 1437 1444 1450 1455 1464 1469 1477 1485 1493 1499 1504 1511 1515 1518 1522 1527 1531 1536 1540 1545 1550 1553 1557
1412 1406 1394 1407 1416 1407 1417 1427 1421 1422 1431 1421 1412 1411 1407 1411 1414 1416 1419 1423 1429 1431 1436 1443 1450 1457 1463 1469 1479 1488 1495 1500 1506 1511 1514 1518 1524 1527 1532 1537 1542 1546 1551 1554
1422 1407 1416 1426 1424 1420 1424 1433 1434 1433 1433 1429 1422 1412 1411 1414 1415 1413 1416 1419 1423 1426 1431 1439 1447 1455 1461 1467 1475 1484 1490 1496 1502 1506 1510 1515 1520 1524 1528 1534 1538 1543 1548 1552
1429 1416 1417 1427 1436 1434 1431 1438 1441 1438 1434 1428 1415 1405 1410 1413 1417 1418 1420 1418 1418 1421 1426 1434 1441 1448 1455 1462 1472 1479 1484 1491 1496 1501 1506 1510 1514 1519 1524 1530 1534 1539 1544 1549
1432 1422 1426 1445 1445 1440 1437 1435 1443 1440 1437 1433 1423 1419 1414 1411 1414 1416 1415 1416 1420 1420 1425 1430 1437 1442 1449 1457 1464 1471 1478 1485 1491 1497 1502 1506 1511 1516 1520 1526 1531 1536 1541 1545
1440 1432 1439 1446 1441 1433 1429 1449 1445 1441 1440 1438 1436 1435 1423 1415 1411 1412 1411 1411 1415 1420 1420 1422 1430 1436 1444 1451 1457 1465 1474 1481 1487 1493 1498 1503 1508 1513 1517 1522 1527 1532 1537 1542
1442 1443 1446 1451 1442 1443 1453 1450 1447 1443 1441 1439 1434 1426 1421 1415 1410 1405 1403 1403 1408 1413 1417 1419 1425 1433 1440 1446 1455 1462 1470 1477 1483 1489 1494 1499 1505 1509 1514 1518 1523 1528 1533 1537
1461 1464 1463 1461 1459 1457 1453 1451 1447 1443 1439 1438 1432 1423 1418 1410 1405 1402 1401 1400 1403 1406 1411 1417 1421 1428 1435 1442 1450 1457 1466 1472 1478 1485 1490 1495 1500 1505 1509 1513 1518 1522 1527 1531
1463 1465 1464 1463 1461 1458 1454 1450 1446 1443 1440 1435 1431 1424 1416 1409 1404 1399 1398 1400 1402 1404 1408 1414 1418 1425 1433 1438 1445 1454 1460 1467 1474 1479 1484 1491 1496 1501 1504 1508 1511 1516 1520 1524
1463 1463 1464 1465 1463 1457 1453 1450 1446 1442 1439 1435 1432 1423 1415 1408 1402 1399 1398 1399 1401 1403 1405 1410 1415 1422 1428 1435 1442 1450 1456 1463 1469 1475 1480 1486 1490 1495 1498 1502 1506 1509 1514 1519
1471 1463 1464 1465 1464 1460 1455 1449 1446 1442 1437 1435 1430 1421 1413 1407 1404 1400 1398 1398 1400 1402 1406 1408 1414 1420 1425 1432 1439 1447 1453 1458 1464 1469 1475 1481 1486 1491 1495 1499 1503 1508 1512 1517
1466 1465 1465 1465 1464 1460 1456 1451 1447 1443 1439 1434 1429 1424 1416 1409 1404 1402 1400 1398 1401 1402 1405 1409 1413 1417 1424 1430 1437 1443 1449 1455 1460 1465 1470 1475 1480 1485 1490 1495 1499 1503 1508 1512
1468 1466 1465 1464 1463 1459 1456 1452 1450 1447 1443 1439 1434 1428 1419 1412 1406 1406 1401 1401 1402 1404 1408 1413 1414 1417 1422 1426 1434 1440 1446 1452 1457 1461 1466 1470 1475 1480 1485 1490 1494 1497 1502 1506
1468 1467 1466 1466 1465 1461 1458 1454 1450 1446 1443 1439 1435 1429 1423 1416 1411 1411 1406 1404 1406 1409 1410 1410 1416 1421 1424 1428 1432 1436 1442 1448 1454 1459 1463 1468 1472 1476 1481 1485 1489 1493 1497 1501
1469 1468 1469 1468 1468 1465 1463 1459 1456 1452 1448 1445 1440 1434 1430 1427 1421 1416 1412 1409 1409 1411 1410 1411 1413 1419 1424 1428 1431 1435 1440 1445 1451 1455 1460 1464 1468 1472 1476 1480 1484 1488 1492 1495
1470 1471 1472 1471 1471 1470 1468 1465 1462 1459 1454 1450 1448 1443 1437 1433 1429 1426 1423 1422 1418 1412 1412 1415 1413 1419 1426 1425 1428 1433 1438 1443 1448 1452 1456 1459 1464 1468 1471 1474 1478 1482 1486 1490
1477 1476 1475 1474 1474 1474 1472 1469 1466 1462 1459 1457 1454 1449 1444 1440 1440 1440 1436 1431 1426 1418 1415 1412 1410 1418 1420 1421 1426 1429 1435 1440 1445 1449 1452 1456 1459 1463 1467 1469 1472 1476 1480 1484
1485 1483 1480 1479 1478 1477 1475 1473 1470 1467 1465 1462 1458 1454 1451 1450 1448 1445 1443 1434 1429 1421 1422 1416 1417 1422 1425 1423 1425 1429 1433 1437 1442 1445 1448 1452 1455 1458 1461 1464 1467 1471 1474 1477
1490 1488 1485 1484 1482 1480 1478 1477 1475 1472 1468 1465 1461 1458 1457 1455 1451 1450 1447 1441 1440 1436 1435 1431 1430 1431 1429 1425 1425 1428 1432 1434 1437 1440 1444 1447 1450 1453 1456 1459 1462 1465 1468 1470
1491 1490 1488 1486 1484 1481 1479 1477 1476 1474 1472 1469 1466 1464 1461 1458 1454 1451 1450 1448 1444 1444 1442 1441 1438 1436 1433 1428 1427 1430 1432 1433 1435 1438 1439 1442 1445 1448 1450 1453 1456 1458 1462 1464
1492 1490 1488 1486 1484 1482 1480 1478 1477 1475 1473 1472 1470 1468 1465 1462 1459 1455 1455 1453 1449 1448 1447 1443 1441 1438 1436 1433 1433 1430 1431 1432 1435 1437 1438 1439 1441 1442 1444 1446 1448 1451 1454 1456
1490 1489 1487 1485 1483 1482 1480 1478 1476 1474 1473 1471 1469 1466 1465 1463 1460 1457 1453 1451 1448 1447 1446 1443 1440 1438 1435 1433 1434 1433 1433 1434 1436 1436 1435 1436 1435 1437 1440 1442 1443 1445 1447 1449
1487 1486 1485 1484 1482 1480 1479 1477 1475 1474 1471 1469 1466 1463 1459 1455 1453 1450 1448 1446 1445 1445 1443 1440 1437 1434 1431 1433 1433 1433 1433 1434 1434 1433 1433 1432 1430 1433 1436 1438 1438 1440 1441 1442
1484 1483 1482 1481 1480 1479 1477 1475 1473 1472 1470 1467 1464 1460 1457 1453 1449 1444 1442 1440 1439 1438 1437 1435 1433 1431 1430 1430 1429 1428 1427 1427 1426 1427 1426 1426 1427 1430 1431 1433 1433 1433 1433 1434
1481 1480 1479 1479 1477 1476 1474 1473 1470 1467 1464 1462 1459 1456 1453 1449 1445 1442 1439 1437 1435 1433 1431 1429 1427 1425 1424 1423 1422 1421 1421 1421 1420 1420 1421 1422 1423 1425 1427 1427 1427 1427 1427 1426
1478 1477 1475 1474 1473 1472 1470 1468 1466 1463 1460 1457 1453 1451 1449 1446 1443 1440 1438 1434 1431 1428 1426 1423 1420 1419 1418 1417 1417 1416 1415 1415 1414 1415 1415 1416 1416 1417 1418 1419 1420 1421 1420 1420